RYR54ZT LFSB-LSZB

Flight info

Callsign RYR54ZT
Flight time 0h 15m
Altitude 9000
Route OLBEN Z50 ROTOS
Aircraft B738/M-SDE2E3FGHIRWXY/LB1

Departure

Time 2026-05-06 04:50
Airport EuroAirport Basel–Mulhouse–Freiburg (LFSB)

Arrival

Time 2026-05-06 05:05
Airport Bern Airport (LSZB)
Time Latitude Longitude Altitude Speed Heading
2026-05-06 04:41 47.59221 7.53355 893 ft 0 kts 164°
2026-05-06 04:48 47.59202 7.53348 892 ft 7 kts 201°
2026-05-06 04:48 47.59101 7.53266 893 ft 24 kts 190°
2026-05-06 04:48 47.58856 7.53390 892 ft 59 kts 167°
2026-05-06 04:49 47.58658 7.53351 893 ft 23 kts 238°
2026-05-06 04:49 47.58647 7.53157 891 ft 16 kts 327°
2026-05-06 04:49 47.58816 7.53045 887 ft 57 kts 335°
2026-05-06 04:49 47.59411 7.52627 892 ft 129 kts 335°
2026-05-06 04:50 47.60373 7.51963 1148 ft 164 kts 335°
2026-05-06 04:50 47.61379 7.51226 1976 ft 164 kts 333°
2026-05-06 04:50 47.62428 7.50492 2820 ft 164 kts 334°
2026-05-06 04:50 47.63217 7.49313 3536 ft 167 kts 285°
2026-05-06 04:51 47.63091 7.47657 4271 ft 170 kts 241°
2026-05-06 04:51 47.62185 7.46393 4638 ft 199 kts 205°
2026-05-06 04:51 47.60747 7.46178 4868 ft 225 kts 167°
2026-05-06 04:51 47.59210 7.46992 5156 ft 243 kts 159°
2026-05-06 04:52 47.57617 7.47937 5689 ft 249 kts 159°
2026-05-06 04:52 47.55973 7.48903 6113 ft 263 kts 159°
2026-05-06 04:52 47.54223 7.49911 6667 ft 274 kts 159°
2026-05-06 04:52 47.52445 7.50915 7616 ft 272 kts 160°
2026-05-06 04:53 47.50678 7.51900 8507 ft 274 kts 160°
2026-05-06 04:53 47.48884 7.52889 8896 ft 276 kts 160°
2026-05-06 04:53 47.47087 7.53873 8975 ft 274 kts 160°
2026-05-06 04:53 47.45326 7.54833 9005 ft 274 kts 160°
2026-05-06 04:54 47.43525 7.55811 8999 ft 278 kts 160°
2026-05-06 04:54 47.41697 7.56801 9007 ft 280 kts 160°
2026-05-06 04:54 47.39858 7.57796 9013 ft 281 kts 160°
2026-05-06 04:54 47.38019 7.58790 8973 ft 282 kts 160°
2026-05-06 04:55 47.36183 7.59782 8851 ft 280 kts 160°
2026-05-06 04:55 47.34364 7.60763 8829 ft 277 kts 160°
2026-05-06 04:55 47.32543 7.61744 8835 ft 278 kts 160°
2026-05-06 04:55 47.30725 7.62730 8832 ft 279 kts 159°
2026-05-06 04:56 47.28997 7.63968 8828 ft 278 kts 151°
2026-05-06 04:56 47.27340 7.65394 8839 ft 277 kts 150°
2026-05-06 04:56 47.25672 7.66842 8825 ft 277 kts 150°
2026-05-06 04:56 47.24024 7.68252 8826 ft 275 kts 150°
2026-05-06 04:57 47.22344 7.69652 8835 ft 279 kts 155°
2026-05-06 04:57 47.20457 7.70289 8841 ft 280 kts 181°
2026-05-06 04:57 47.18575 7.69605 8784 ft 283 kts 207°
2026-05-06 04:57 47.17075 7.67760 8604 ft 284 kts 230°
2026-05-06 04:58 47.16323 7.66164 8443 ft 286 kts 237°
2026-05-06 04:58 47.15318 7.63608 8137 ft 289 kts 239°
2026-05-06 04:58 47.14339 7.61068 7820 ft 283 kts 239°
2026-05-06 04:58 47.13360 7.58581 7537 ft 279 kts 239°
2026-05-06 04:59 47.12435 7.56100 7235 ft 279 kts 248°
2026-05-06 04:59 47.11906 7.53362 6956 ft 278 kts 257°
2026-05-06 04:59 47.11516 7.50602 6666 ft 278 kts 258°
2026-05-06 04:59 47.11111 7.47795 6444 ft 275 kts 257°
2026-05-06 05:00 47.10710 7.45148 6430 ft 263 kts 257°
2026-05-06 05:00 47.10450 7.43476 6397 ft 255 kts 257°
2026-05-06 05:00 47.10181 7.41748 6330 ft 246 kts 257°
2026-05-06 05:00 47.09799 7.39332 6231 ft 241 kts 257°
2026-05-06 05:01 47.09261 7.37058 6063 ft 233 kts 235°
2026-05-06 05:01 47.08120 7.35488 5931 ft 220 kts 213°
2026-05-06 05:01 47.06839 7.34347 5728 ft 210 kts 208°
2026-05-06 05:01 47.05485 7.33770 5498 ft 200 kts 172°
2026-05-06 05:02 47.04241 7.34520 5373 ft 192 kts 147°
2026-05-06 05:02 47.03111 7.35578 5155 ft 195 kts 145°
2026-05-06 05:02 47.02011 7.36731 4928 ft 193 kts 141°
2026-05-06 05:02 47.00985 7.37956 4725 ft 192 kts 139°
2026-05-06 05:03 46.99939 7.39241 4402 ft 195 kts 139°
2026-05-06 05:03 46.98906 7.40511 4051 ft 194 kts 139°
2026-05-06 05:03 46.97882 7.41767 3695 ft 188 kts 139°
2026-05-06 05:03 46.96922 7.42944 3387 ft 173 kts 140°
2026-05-06 05:04 46.96047 7.44018 3093 ft 158 kts 140°
2026-05-06 05:04 46.95222 7.45031 2821 ft 152 kts 140°
2026-05-06 05:04 46.94423 7.46011 2561 ft 148 kts 140°
2026-05-06 05:04 46.93650 7.46971 2347 ft 146 kts 138°
2026-05-06 05:05 46.92867 7.47955 2090 ft 148 kts 140°
2026-05-06 05:05 46.92075 7.48910 1813 ft 147 kts 140°
2026-05-06 05:05 46.91323 7.49826 1679 ft 126 kts 140°
2026-05-06 05:05 46.90937 7.50296 1686 ft 29 kts 140°
2026-05-06 05:06 46.90914 7.50337 1681 ft 0 kts 109°